Regional Weather Roundup
Issued by NWS

Home | Current Version | Previous Version | Graphics & Text | Print | Product List | Glossary On
Versions: 1 2 3 4 5 6 7 8 9 10 11 12 13 14 15 16 17 18 19 20 21 22 23 24 25 26 27 28 29 30 31 32 33 34 35 36 37 38 39 40 41 42 43 44 45 46 47 48 49 50
492
ASUS43 KTOP 221808
RWRKS

WEATHER ROUNDUP FOR KANSAS
NATIONAL WEATHER SERVICE GOODLAND KS
100 PM CDT SAT JUL 22 2017

NOTE:  "FAIR" INDICATES FEW OR NO CLOUDS BELOW 12,000 FEET WITH NO
SIGNIFICANT WEATHER AND/OR OBSTRUCTIONS TO VISIBILITY.

KSZ001>006-013>018-027>032-041>047-221900-
NORTHWEST KANSAS

CITY           SKY/WX    TMP DP  RH WIND       PRES   REMARKS
GOODLAND       CLOUDY    83  56  39 N15       30.08S
6HR MIN TEMP:  68; 6HR MAX TEMP:  85;

HAYS           SUNNY     97  63  32 SW7       29.89F HX  98
HILL CITY      SUNNY     98  65  33 NE12      29.93F HX 101
6HR MIN TEMP:  69; 6HR MAX TEMP:  98;

RUSSELL        SUNNY     97  59  28 VRB3      29.87F HX  96
6HR MIN TEMP:  73; 6HR MAX TEMP:  98;

$$

KSZ061>065-074>080-084>089-221900-
SOUTHWEST KANSAS

CITY           SKY/WX    TMP DP  RH WIND       PRES   REMARKS
DODGE CITY     SUNNY     96  60  30 SW7       29.95F HX  96
6HR MIN TEMP:  66; 6HR MAX TEMP:  96;

ELKHART          N/A     89  52  28 N6          N/A
GARDEN CITY    SUNNY     93  57  29 VRB3      29.98S
6HR MIN TEMP:  64; 6HR MAX TEMP:  93;

LIBERAL        SUNNY     91  61  36 VRB3      30.00S
PRATT          SUNNY     99  60  27 W10       29.91S HX  99
6HR MIN TEMP:  71; 6HR MAX TEMP:  99;

$$

KSZ066>073-081>083-090>101-221900-
SOUTHEAST KANSAS

CITY           SKY/WX    TMP DP  RH WIND       PRES   REMARKS
CHANUTE        SUNNY    100  71  39 S14G32    29.87F HX 108
6HR MIN TEMP:  79; 6HR MAX TEMP: 100;

COFFEYVILLE    SUNNY     96  74  48 S15G21    29.87F HX 107
6HR MIN TEMP:  78; 6HR MAX TEMP:  96;

HUTCHINSON     SUNNY    102  62  26 SW10G18   29.87F HX 104
6HR MIN TEMP:  79; 6HR MAX TEMP: 102;

MEDICINE LODGE   N/A    102  59  24 SW9G16    29.87F HX 102
NEWTON           N/A    100  67  33 SW13G20   29.88F HX 105
PARSONS        SUNNY     96  72  45 S9        29.89F HX 104
6HR MIN TEMP:  78; 6HR MAX TEMP:  96;

WICHITA INTL   MOSUNNY  101  67  32 SW9       29.86F HX 106
6HR MIN TEMP:  79; 6HR MAX TEMP: 101;

WICHITA JABRA  SUNNY    100  68  35 SW13      29.87F HX 105
6HR MIN TEMP:  80; 6HR MAX TEMP: 100;

WICHITA MCCONL SUNNY     99  67  35 SW12      29.87F HX 104
WINFIELD       SUNNY    100  67  33 SW10      29.89F HX 105
6HR MIN TEMP:  77; 6HR MAX TEMP: 100;

$$

KSZ007>012-019>026-033>040-048>060-102>105-221900-
NORTHEAST KANSAS

CITY           SKY/WX    TMP DP  RH WIND       PRES   REMARKS
CONCORDIA      SUNNY     95  70  44 E9        29.86F HX 101
6HR MIN TEMP:  78; 6HR MAX TEMP:  95;

EMPORIA        SUNNY     97  71  42 SW10      29.86F HX 104
6HR MIN TEMP:  80; 6HR MAX TEMP:  98;

LAWRENCE       SUNNY     97  73  45 SW10      29.82S HX 107
6HR MIN TEMP:  83; 6HR MAX TEMP:  97;

MANHATTAN      SUNNY     99  67  35 VRB7      29.83S HX 103
6HR MIN TEMP:  81; 6HR MAX TEMP:  99;

MARYSVILLE     SUNNY     97  75  49 N9        29.85S HX 109
OLATHE IND     SUNNY     95  73  48 SW12      29.85S HX 104
6HR MIN TEMP:  81; 6HR MAX TEMP:  95;

OLATHE EXE     SUNNY     92  73  53 SW16      29.84F HX 100
6HR MIN TEMP:  80; 6HR MAX TEMP:  92;

SALINA         SUNNY    104  60  23 W6        29.84F HX 105
6HR MIN TEMP:  83; 6HR MAX TEMP: 105;

TOPEKA BILLARD SUNNY     97  74  47 VRB5      29.81F HX 108
6HR MIN TEMP:  82; 6HR MAX TEMP:  97;

TOPEKA FORBES  SUNNY     96  73  47 SW10      29.83F HX 105
6HR MIN TEMP:  81; 6HR MAX TEMP:  97;

$$




USA.gov is the U.S. government's official web portal to all federal, state and local government web resources and services.